A/2020 B1

Japanese version
Home page
Updated on February 19, 2020

---------------------------------------------------------------------

* Profile

Discovery Date January 19, 2020
Magnitude 22.06 mag
Discoverer Pan-STARRS 1 telescope (Haleakala)

* Orbital Elements

Epoch 2019 Dec. 23.0 TT = JDT 2458840.5
T 2019 Dec. 25.95223 TT                                 Bell
q   1.7477845            (2000.0)            P               Q
z  +0.0190714      Peri.  154.79500     -0.27280230     -0.93084336
 +/-0.0000000      Node   310.03355     +0.82013059     -0.09289311
e   0.9666673      Incl.   18.51377     +0.50295598     -0.35341408
H   21.0
From 27 observations 2020 Jan. 19-Feb. 2, mean residual 0".2.

* Magnitudes Graph

        H = 21.0  G = 0.15

---------------------------------------------------------------------

The orbital elements are published on M.P.E.C. 2020-C98.
The magnitudes graphs are made with Comet for Windows.

---------------------------------------------------------------------

Copyright(C) Seiichi Yoshida (comet@aerith.net). All rights reserved.